EHI
0 0 0 0 0 0 0 0 0 0 0 0 0 0 0 1 1 1 0 0 0 0 0 2 5 6 6 7 8 7 8 12 12 6 1 0 0 1 2 3 3 2 2
0 0 0 0 0 0 0 0 0 0 0 0 0 0 0 0 0 0 0 0 0 0 0 2 5 6 6 6 5 5 7 14 15 7 1 0 0 0 1 2 2 2 2
0 0 0 0 0 0 0 0 0 0 0 0 0 0 0 0 0 0 0 0 0 0 0 1 3 4 4 3 2 3 7 14 14 7 1 0 0 0 0 0 0 1 1
1 0 0 0 0 0 0 0 0 0 0 0 0 0 0 0 0 0 0 0 0 0 0 0 1 2 3 3 1 2 5 8 8 4 1 0 0 0 0 0 0 0 0
1 0 0 0 0 0 0 0 0 0 0 0 0 0 0 0 0 0 0 0 0 0 0 0 0 1 3 2 1 1 1 2 2 1 0 0 0 0 0 0 0 0 0
1 0 0 0 0 0 0 0 0 0 0 0 0 0 0 0 0 0 0 0 0 0 0 0 0 0 1 1 1 1 0 0 0 0 0 0 0 0 0 0 0 0 0
0 0 0 0 0 0 0 0 0 0 0 0 0 0 0 0 0 0 0 0 0 0 0 0 0 0 0 1 1 1 0 0 0 0 0 0 0 0 0 0 0 0 0
0 0 0 0 0 0 0 0 0 0 0 0 0 0 0 0 0 0 0 0 0 0 0 1 1 1 0 0 0 0 0 0 1 1 0 0 0 0 0 0 0 0 0
0 0 0 0 0 0 0 0 0 0 0 0 0 0 0 0 0 0 0 0 0 0 0 1 1 1 0 0 0 0 0 0 0 1 1 0 0 0 0 0 1 1 1
0 0 0 0 0 0 0 0 0 0 0 0 0 0 0 0 0 0 0 0 0 0 0 0 0 0 0 0 0 0 0 0 0 0 0 0 0 0 0 0 0 1 1
0 0 0 0 0 0 0 0 0 0 0 0 0 0 0 0 0 0 0 0 0 0 0 0 0 0 0 0 1 0 0 0 0 0 0 0 0 0 0 0 0 0 1
0 0 0 0 0 0 0 0 0 0 0 0 0 0 0 0 0 0 0 0 0 0 0 0 0 0 0 0 0 0 0 0 0 0 0 0 0 0 0 0 0 0 0
0 0 0 0 0 0 0 0 0 0 0 0 0 0 0 0 0 0 0 0 0 0 0 0 0 0 0 0 0 0 0 0 0 0 0 0 0 0 0 0 0 0 0
0 0 0 0 0 0 0 0 0 0 0 0 0 0 0 0 0 0 0 0 0 0 0 0 0 0 0 0 0 0 0 0 0 0 0 0 0 0 0 0 0 0 0
0 0 0 0 0 0 0 0 0 0 0 0 0 0 0 0 0 0 0 0 0 0 0 0 0 0 0 0 0 0 0 0 0 0 0 0 0 0 0 0 0 0 0
0 0 0 0 0 0 0 0 0 0 0 0 0 0 0 0 0 0 0 0 0 0 0 0 0 0 0 0 0 0 0 0 0 0 0 0 0 0 0 0 0 0 0
0 0 0 0 0 0 0 0 0 0 0 0 0 0 0 0 0 0 0 0 0 0 0 0 0 0 0 0 0 0 0 0 0 0 0 0 0 0 0 0 0 0 0
0 0 0 0 0 0 0 0 0 0 0 0 0 0 0 0 0 0 0 0 0 0 0 0 0 0 0 0 0 0 0 0 0 0 0 0 0 0 0 0 0 0 0
0 0 0 0 0 0 0 0 0 0 0 0 0 0 0 0 0 0 0 0 0 0 0 0 0 0 0 0 0 0 0 0 0 0 0 0 0 0 0 0 0 0 0
0 0 0 0 0 0 0 0 0 0 0 0 0 0 0 0 0 0 0 0 0 0 0 0 0 0 0 0 0 0 0 0 0 0 0 0 0 0 0 0 0 0 0
0 0 0 0 0 0 0 0 0 0 0 0 0 0 0 0 0 0 0 0 0 0 0 0 0 0 0 0 0 0 0 0 0 0 0 0 0 0 0 0 0 0 0
0 0 0 0 0 0 0 0 0 0 0 0 0 0 0 0 0 0 0 0 0 0 0 0 0 0 0 0 0 0 0 0 0 0 0 0 0 0 0 0 0 0 0
0 0 0 0 0 0 0 0 0 0 0 0 0 0 0 0 0 0 0 0 0 0 0 0 0 0 0 0 0 0 0 0 0 0 0 0 0 0 0 0 0 0 0
0 0 0 0 0 0 0 0 0 0 0 0 0 0 0 0 0 0 0 0 0 0 0 0 0 0 0 0 0 0 0 0 0 0 0 0 0 0 0 0 0 0 0
0 0 0 0 0 0 0 0 0 0 0 0 0 0 0 0 0 0 0 0 0 0 0 0 0 0 0 0 0 0 0 0 0 0 0 0 0 0 0 0 0 0 0
0 0 0 0 0 0 0 0 0 0 0 0 0 0 0 0 0 0 0 0 0 0 0 0 0 0 0 0 0 0 0 0 0 0 0 0 0 0 0 0 0 0 0
Wind_Speed
5 4 3 3 4 3 3 3 4 3 3 2 3 4 4 4 5 5 6 16 18 17 17 20 22 22 21 20 20 20 20 20 19 18 18 18 18 19 19 18 18 18 17
4 4 3 3 2 3 3 3 4 3 3 3 3 4 4 4 5 6 6 9 15 15 16 19 21 22 21 21 21 20 20 20 20 19 19 19 19 19 19 19 19 18 18
4 4 3 2 2 3 3 3 3 2 2 2 3 4 4 5 6 6 6 5 6 11 15 17 19 21 21 22 22 21 20 20 20 20 20 20 20 19 19 19 19 18 18
4 3 2 1 2 2 2 2 2 1 1 2 2 3 4 4 7 7 6 6 6 6 9 15 17 19 21 23 23 21 21 21 21 21 20 20 20 20 20 20 19 18 18
4 3 3 2 2 1 1 1 1 1 2 2 3 4 4 5 7 8 8 9 8 7 6 9 15 19 22 24 22 21 21 23 23 22 22 22 22 21 20 21 20 18 18
5 4 3 2 1 1 1 1 0 1 2 2 3 3 4 5 6 6 8 8 8 9 9 8 8 10 19 21 20 21 23 24 23 22 22 23 23 22 21 20 19 17 17
6 5 3 2 3 3 2 1 1 1 1 1 0 3 4 5 6 5 5 6 8 9 8 8 7 7 7 15 19 20 23 23 22 22 22 22 23 22 20 20 18 16 16
6 5 5 4 3 2 1 0 1 1 0 1 2 1 3 5 4 3 3 4 5 5 7 8 8 8 7 5 8 17 20 21 21 21 21 22 22 21 20 20 19 18 18
5 5 6 5 4 3 2 1 0 1 1 0 1 2 1 2 4 4 3 4 3 3 4 5 7 8 7 6 6 11 18 19 20 21 20 21 22 20 19 20 20 21 21
6 6 6 6 5 3 3 2 2 2 2 1 1 1 3 3 2 4 4 4 5 5 5 4 5 7 7 7 9 14 18 18 19 21 21 21 21 20 18 18 19 20 20
5 5 7 6 5 4 4 3 2 2 2 2 2 2 2 2 3 3 5 5 5 4 4 5 5 5 7 7 7 11 15 16 17 19 19 18 17 16 15 15 17 18 19
2 3 5 6 6 5 5 4 4 3 3 3 3 3 3 2 2 2 4 4 5 4 5 4 4 4 5 5 8 12 13 13 14 14 13 12 9 8 8 8 10 13 14
3 4 3 4 5 5 5 5 4 4 4 4 5 4 3 4 3 3 3 4 4 4 4 3 3 3 2 1 2 7 8 10 9 9 9 9 8 8 6 4 2 2 5
3 5 5 3 3 5 5 5 4 5 4 5 6 5 4 4 4 4 4 3 4 3 3 4 3 1 1 2 4 5 4 9 11 12 13 13 12 11 9 8 7 6 5
4 6 7 6 4 4 6 5 5 5 5 5 6 6 4 4 4 5 4 4 3 3 3 3 2 1 3 4 5 4 4 10 13 14 14 13 13 12 12 11 11 11 11
4 5 5 7 7 6 6 6 5 6 6 6 5 6 6 4 4 4 4 4 5 4 3 3 2 1 3 6 8 5 7 12 13 14 15 14 14 14 14 13 13 13 13
5 5 5 5 6 7 7 6 7 7 7 7 6 7 7 6 4 4 4 4 4 4 4 3 2 2 4 8 8 6 6 6 8 14 16 16 15 15 15 15 14 14 14
6 5 5 5 5 5 6 6 7 7 7 8 8 7 8 6 6 5 4 4 4 4 4 4 3 3 4 8 9 8 6 6 7 13 15 16 16 17 16 16 15 14 14
7 6 5 6 6 6 6 6 6 6 6 7 7 7 8 7 7 5 5 5 4 4 5 5 4 3 3 6 9 8 8 7 8 11 14 16 17 17 17 17 16 15 14
7 8 7 7 7 7 8 8 7 6 6 5 6 7 8 8 8 7 5 5 5 5 5 5 5 6 5 7 8 9 8 6 6 8 9 10 14 15 15 16 17 16 14
9 8 8 7 7 7 8 8 8 7 7 6 6 6 8 10 11 9 6 5 5 4 4 5 6 6 7 9 8 6 10 8 7 5 7 6 6 6 7 12 16 16 13
8 8 9 9 8 8 11 13 9 7 7 7 7 7 7 9 12 13 11 9 7 5 5 5 5 9 9 8 8 10 11 11 6 3 5 5 4 5 3 4 9 12 12
9 8 9 8 9 11 15 16 15 8 7 6 7 6 6 6 9 7 8 7 5 6 5 5 8 9 10 10 11 11 8 6 5 6 5 5 3 4 2 4 9 10 10
6 6 7 6 6 10 15 16 17 9 5 5 6 7 8 8 9 10 7 5 4 4 5 4 6 8 10 11 10 10 9 8 7 5 3 4 2 2 2 2 4 6 7
6 6 5 6 6 10 14 16 14 5 5 5 4 6 9 11 14 14 9 7 6 4 7 11 11 13 16 16 13 10 9 9 8 4 2 4 3 2 2 1 0 2 4
6 6 6 6 7 9 13 16 14 5 5 4 3 5 10 13 16 16 10 9 9 6 7 9 10 12 12 12 11 8 9 10 9 4 3 4 4 4 2 1 0 1 1
Wind_Direction
218 219 223 223 220 206 198 203 202 220 245 237 230 226 225 233 240 231 238 247 253 251 242 230 223 220 220 220 220 221 221 218 213 211 210 208 206 203 201 200 200 201 202
203 219 226 211 195 177 177 179 185 196 211 202 194 197 216 231 238 240 240 253 261 261 249 239 231 227 224 222 223 224 223 221 217 214 212 211 209 208 205 205 205 203 204
191 199 201 200 190 180 179 177 188 188 202 208 217 220 228 238 244 241 241 243 252 259 254 243 235 230 230 230 228 226 223 221 219 216 214 213 212 209 208 210 209 206 205
178 171 178 216 210 185 185 189 192 197 218 213 225 234 236 246 255 256 255 252 248 252 252 246 239 234 233 236 236 232 228 224 221 219 216 215 214 211 210 213 211 208 208
186 176 194 217 222 208 218 241 230 204 243 251 239 235 235 239 247 253 251 251 249 246 247 253 247 241 239 241 242 238 235 230 224 221 218 216 215 212 210 213 211 207 208
194 189 200 198 165 135 81 72 207 207 229 253 269 269 257 248 244 240 242 246 247 244 238 238 242 248 246 245 243 240 239 235 228 224 222 216 216 214 209 211 211 209 208
184 185 190 169 136 134 149 143 133 121 236 212 318 313 295 268 253 251 242 238 243 244 239 233 229 232 245 245 242 240 239 237 232 228 225 220 216 213 208 208 208 211 215
182 178 176 173 163 153 146 94 113 120 191 122 124 2 328 327 323 292 282 260 256 248 241 234 227 223 225 231 237 238 240 239 234 229 227 226 221 213 207 205 205 212 220
185 175 177 172 176 168 175 188 186 159 191 321 140 155 191 275 303 299 299 300 309 287 253 238 227 219 217 219 228 239 241 238 232 230 229 230 225 217 209 206 205 210 215
191 184 181 179 179 170 175 198 212 194 176 230 281 201 194 196 244 304 305 302 314 309 295 266 243 231 220 219 224 227 235 232 228 227 229 230 225 221 218 213 214 215 218
210 198 191 184 179 174 181 186 191 204 192 200 215 227 226 217 205 226 291 312 319 299 293 276 254 242 228 216 217 226 227 226 225 225 225 228 225 220 222 221 226 225 224
296 261 221 196 183 176 181 192 196 201 216 228 228 220 213 214 206 211 261 294 299 293 297 284 270 256 242 222 223 225 225 225 225 225 224 220 215 204 204 212 226 231 232
345 328 276 212 187 183 183 184 194 214 220 226 234 230 220 220 214 209 238 268 279 292 293 294 282 274 248 211 232 219 219 208 196 186 171 150 131 124 126 136 164 217 238
323 333 342 300 219 191 191 192 200 214 217 227 234 227 223 236 228 218 219 238 273 288 287 281 295 305 100 94 90 97 119 132 126 124 123 121 122 124 123 115 103 96 92
309 330 332 322 290 243 221 205 207 216 217 224 231 230 229 239 237 233 224 215 224 261 284 281 291 34 106 104 99 90 104 115 117 116 115 116 117 114 108 100 92 86 81
277 293 301 305 300 280 249 224 216 220 220 225 219 226 235 240 241 235 222 211 205 214 245 261 267 108 125 116 111 111 112 113 112 113 112 111 108 104 99 93 86 80 76
275 277 278 281 291 293 281 252 232 221 222 228 225 227 237 239 234 226 210 196 196 199 232 246 214 141 126 127 117 112 111 107 109 109 111 110 108 104 98 93 87 82 80
269 267 270 277 283 292 302 291 268 247 229 228 228 226 236 239 229 220 208 200 196 197 209 229 193 152 131 138 124 115 105 104 105 109 111 113 110 106 102 98 94 88 84
264 267 259 260 267 274 280 283 283 273 248 237 232 226 230 231 233 224 211 204 206 209 211 215 183 145 130 138 123 109 106 103 103 110 109 107 106 104 103 101 97 90 86
264 267 259 247 248 257 265 266 264 265 259 252 245 237 232 225 225 219 208 209 211 214 211 203 175 154 145 140 130 128 121 113 110 111 104 104 103 99 101 101 99 96 91
253 257 263 256 245 246 253 252 248 248 247 251 254 247 242 234 223 204 195 203 202 197 187 181 167 151 150 152 144 137 132 120 104 112 116 110 100 91 88 97 100 102 99
251 253 256 257 256 256 255 252 245 243 247 249 256 255 246 231 210 199 196 194 189 176 172 168 162 156 155 151 138 139 137 135 131 153 124 106 99 99 85 88 105 103 99
233 240 247 250 254 255 252 250 247 237 240 248 254 251 240 214 188 178 178 169 159 145 153 164 158 152 153 151 141 137 136 127 116 140 118 90 74 88 71 99 107 101 99
201 212 224 234 255 260 251 244 243 236 239 252 259 244 219 202 193 174 159 147 134 123 120 116 128 130 137 137 131 131 131 114 104 108 101 101 81 65 42 46 104 108 101
209 212 216 226 243 258 252 240 234 220 228 245 265 258 224 203 192 171 153 146 132 119 106 108 111 119 125 131 137 136 137 137 134 131 120 107 119 93 57 27 31 124 109
224 230 236 234 241 250 248 235 221 203 215 231 255 269 230 204 183 170 159 155 149 142 125 110 109 117 128 137 145 149 152 150 144 142 165 123 143 133 117 272 220 97 83